Terminal Aerodrome Forecast
Issued by NWS

Home | Current Version | Previous Version | Text Only | Print | Product List | Glossary On
Versions: 1 2 3 4 5 6 7 8 9 10 11 12 13
707
FTPA31 PHFO 300533
TAFHOG
TAF
PHOG 300533Z 3006/3106 05011KT P6SM FEW030 SCT050
     FM302000 05016G24KT P6SM FEW030 SCT050
     FM310500 05011KT P6SM SCT030 SCT050
      AMD LTD TO VIS AND WIND 3009/3016=

USA.gov is the U.S. government's official web portal to all federal, state and local government web resources and services.